Time,TemperatureF,DewpointF,PressureIn,WindDirection,WindDirectionDegrees,WindSpeedMPH,WindSpeedGustMPH,Humidity,HourlyPrecipIn,Conditions,Clouds,dailyrainin,SoftwareType,DateUTC
2013-07-04 00:11:00,64.9,64.0,30.02,East,90,0.0,-999.0,97,-99.99,,,0.00,Acu-Link.com,2013-07-04 04:11:00,
2013-07-04 00:26:00,64.6,63.7,30.02,South,180,0.0,-999.0,97,-99.99,,,0.00,Acu-Link.com,2013-07-04 04:26:00,
2013-07-04 00:41:00,64.4,63.5,30.02,ESE,112,0.0,-999.0,97,-99.99,,,0.00,Acu-Link.com,2013-07-04 04:41:00,
2013-07-04 00:56:00,64.4,63.5,30.01,ESE,112,0.0,-999.0,97,-99.99,,,0.00,Acu-Link.com,2013-07-04 04:56:00,
2013-07-04 01:11:00,64.0,63.1,30.02,SE,135,0.0,-999.0,97,-99.99,,,0.00,Acu-Link.com,2013-07-04 05:11:00,
2013-07-04 01:26:00,63.9,63.3,30.02,ESE,112,0.0,-999.0,98,-99.99,,,0.00,Acu-Link.com,2013-07-04 05:26:00,
2013-07-04 01:42:00,63.5,62.9,30.02,ESE,112,0.0,-999.0,98,-99.99,,,0.00,Acu-Link.com,2013-07-04 05:42:00,
2013-07-04 01:57:00,63.3,62.7,30.02,ESE,112,0.0,-999.0,98,-99.99,,,0.00,Acu-Link.com,2013-07-04 05:57:00,
2013-07-04 02:12:00,63.1,62.5,30.01,East,90,0.0,-999.0,98,-99.99,,,0.00,Acu-Link.com,2013-07-04 06:12:00,
2013-07-04 02:27:00,63.1,62.5,30.00,East,90,0.0,-999.0,98,-99.99,,,0.00,Acu-Link.com,2013-07-04 06:27:00,
2013-07-04 02:43:00,62.8,62.2,30.00,East,90,0.0,-999.0,98,-99.99,,,0.00,Acu-Link.com,2013-07-04 06:43:00,
2013-07-04 02:58:00,62.8,62.5,30.00,ENE,67,0.0,-999.0,99,-99.99,,,0.00,Acu-Link.com,2013-07-04 06:58:00,
2013-07-04 03:13:00,62.8,62.5,30.01,North,0,0.0,-999.0,99,-99.99,,,0.00,Acu-Link.com,2013-07-04 07:13:00,
2013-07-04 03:29:00,62.4,62.1,30.00,North,0,0.0,-999.0,99,-99.99,,,0.00,Acu-Link.com,2013-07-04 07:29:00,
2013-07-04 03:44:00,62.4,62.1,30.00,North,0,0.0,-999.0,99,-99.99,,,0.00,Acu-Link.com,2013-07-04 07:44:00,
2013-07-04 04:00:00,62.2,61.9,30.00,North,0,0.0,-999.0,99,-99.99,,,0.00,Acu-Link.com,2013-07-04 08:00:00,
2013-07-04 04:15:00,62.2,61.9,30.00,North,0,0.0,-999.0,99,-99.99,,,0.00,Acu-Link.com,2013-07-04 08:15:00,
2013-07-04 04:30:00,62.1,61.8,30.00,North,0,0.0,-999.0,99,-99.99,,,0.00,Acu-Link.com,2013-07-04 08:30:00,
2013-07-04 04:46:00,61.9,61.6,30.00,North,0,0.0,-999.0,99,-99.99,,,0.00,Acu-Link.com,2013-07-04 08:46:00,
2013-07-04 05:01:00,61.5,61.2,30.00,North,0,0.0,-999.0,99,-99.99,,,0.00,Acu-Link.com,2013-07-04 09:01:00,
2013-07-04 05:16:00,61.3,61.0,30.00,North,0,0.0,-999.0,99,-99.99,,,0.00,Acu-Link.com,2013-07-04 09:16:00,
2013-07-04 05:31:00,61.2,60.9,30.01,North,0,0.0,-999.0,99,-99.99,,,0.00,Acu-Link.com,2013-07-04 09:31:00,
2013-07-04 05:46:00,60.6,60.3,30.01,North,0,0.0,-999.0,99,-99.99,,,0.00,Acu-Link.com,2013-07-04 09:46:00,
2013-07-04 06:01:00,60.6,60.3,30.01,North,0,0.0,-999.0,99,-99.99,,,0.00,Acu-Link.com,2013-07-04 10:01:00,
2013-07-04 06:16:00,60.4,60.1,30.02,North,0,0.0,-999.0,99,-99.99,,,0.00,Acu-Link.com,2013-07-04 10:16:00,
2013-07-04 06:32:00,60.3,60.0,30.03,North,0,0.0,-999.0,99,-99.99,,,0.00,Acu-Link.com,2013-07-04 10:32:00,
2013-07-04 06:47:00,60.4,60.1,30.03,North,0,0.0,-999.0,99,-99.99,,,0.00,Acu-Link.com,2013-07-04 10:47:00,
2013-07-04 07:02:00,61.0,60.7,30.04,North,0,0.0,-999.0,99,-99.99,,,0.00,Acu-Link.com,2013-07-04 11:02:00,
2013-07-04 07:18:00,61.0,60.7,30.04,ESE,112,0.0,-999.0,99,-99.99,,,0.00,Acu-Link.com,2013-07-04 11:18:00,
2013-07-04 07:33:00,62.1,61.8,30.04,SSW,202,0.0,-999.0,99,-99.99,,,0.00,Acu-Link.com,2013-07-04 11:33:00,
2013-07-04 07:48:00,63.3,63.0,30.05,WNW,292,1.1,-999.0,99,-99.99,,,0.00,Acu-Link.com,2013-07-04 11:48:00,
2013-07-04 08:04:00,64.2,63.6,30.04,ESE,112,0.0,-999.0,98,-99.99,,,0.00,Acu-Link.com,2013-07-04 12:04:00,
2013-07-04 08:19:00,65.5,64.3,30.05,East,90,0.0,-999.0,96,-99.99,,,0.00,Acu-Link.com,2013-07-04 12:19:00,
2013-07-04 08:34:00,66.4,64.9,30.06,ESE,112,0.0,-999.0,95,-99.99,,,0.00,Acu-Link.com,2013-07-04 12:34:00,
2013-07-04 08:50:00,67.3,65.2,30.06,South,180,1.7,-999.0,93,-99.99,,,0.00,Acu-Link.com,2013-07-04 12:50:00,
2013-07-04 09:05:00,68.2,66.1,30.06,NW,315,0.0,-999.0,93,-99.99,,,0.00,Acu-Link.com,2013-07-04 13:05:00,
2013-07-04 09:20:00,69.8,66.7,30.06,South,180,1.1,-999.0,90,-99.99,,,0.00,Acu-Link.com,2013-07-04 13:20:00,
2013-07-04 09:35:00,69.8,66.4,30.05,NNW,337,2.7,-999.0,89,-99.99,,,0.00,Acu-Link.com,2013-07-04 13:35:00,
2013-07-04 09:50:00,71.1,67.0,30.05,WNW,292,1.1,-999.0,87,-99.99,,,0.00,Acu-Link.com,2013-07-04 13:50:00,
2013-07-04 10:06:00,70.5,66.8,30.05,West,270,2.7,-999.0,88,-99.99,,,0.00,Acu-Link.com,2013-07-04 14:06:00,
2013-07-04 10:21:00,71.8,66.7,30.05,ESE,112,0.0,-999.0,84,-99.99,,,0.00,Acu-Link.com,2013-07-04 14:21:00,
2013-07-04 10:36:00,72.7,66.2,30.04,SE,135,3.7,-999.0,80,-99.99,,,0.00,Acu-Link.com,2013-07-04 14:36:00,
2013-07-04 10:51:00,72.5,66.7,30.04,West,270,2.2,-999.0,82,-99.99,,,0.00,Acu-Link.com,2013-07-04 14:51:00,
2013-07-04 11:07:00,72.7,66.5,30.05,SW,225,1.1,-999.0,81,-99.99,,,0.00,Acu-Link.com,2013-07-04 15:07:00,
2013-07-04 11:22:00,73.4,65.4,30.05,West,270,2.2,-999.0,76,-99.99,,,0.00,Acu-Link.com,2013-07-04 15:22:00,
2013-07-04 11:37:00,72.5,65.2,30.05,NNW,337,2.7,-999.0,78,-99.99,,,0.00,Acu-Link.com,2013-07-04 15:37:00,
2013-07-04 11:53:00,73.0,65.4,30.05,WNW,292,0.0,-999.0,77,-99.99,,,0.00,Acu-Link.com,2013-07-04 15:53:00,
2013-07-04 12:08:00,75.2,64.3,30.05,East,90,2.2,-999.0,69,-99.99,,,0.00,Acu-Link.com,2013-07-04 16:08:00,
2013-07-04 12:23:00,78.6,65.4,30.05,NNW,337,6.3,-999.0,64,-99.99,,,0.00,Acu-Link.com,2013-07-04 16:23:00,
2013-07-04 12:39:00,75.9,64.6,30.05,West,270,2.7,-999.0,68,-99.99,,,0.00,Acu-Link.com,2013-07-04 16:39:00,
2013-07-04 12:54:00,78.6,64.9,30.04,NE,45,3.2,-999.0,63,-99.99,,,0.00,Acu-Link.com,2013-07-04 16:54:00,
2013-07-04 13:09:00,76.5,63.4,30.04,WNW,292,1.7,-999.0,64,-99.99,,,0.00,Acu-Link.com,2013-07-04 17:09:00,
2013-07-04 13:25:00,78.1,64.5,30.04,South,180,3.7,-999.0,63,-99.99,,,0.00,Acu-Link.com,2013-07-04 17:25:00,
2013-07-04 13:40:00,79.9,65.7,30.04,SSW,202,4.7,-999.0,62,-99.99,,,0.00,Acu-Link.com,2013-07-04 17:40:00,
2013-07-04 13:55:00,79.3,65.6,30.04,WNW,292,3.2,-999.0,63,-99.99,,,0.00,Acu-Link.com,2013-07-04 17:55:00,
2013-07-04 14:10:00,79.3,63.7,30.03,East,90,3.7,-999.0,59,-99.99,,,0.00,Acu-Link.com,2013-07-04 18:10:00,
2013-07-04 14:25:00,79.3,64.7,30.04,NW,315,2.2,-999.0,61,-99.99,,,0.00,Acu-Link.com,2013-07-04 18:25:00,
2013-07-04 14:41:00,79.0,63.4,30.03,SSW,202,2.7,-999.0,59,-99.99,,,0.00,Acu-Link.com,2013-07-04 18:41:00,
2013-07-04 14:56:00,81.0,63.3,30.03,South,180,4.2,-999.0,55,-99.99,,,0.00,Acu-Link.com,2013-07-04 18:56:00,
2013-07-04 15:11:00,78.6,63.5,30.02,NNE,22,3.2,-999.0,60,-99.99,,,0.00,Acu-Link.com,2013-07-04 19:11:00,
2013-07-04 15:26:00,77.5,64.8,30.02,NE,45,3.2,-999.0,65,-99.99,,,0.00,Acu-Link.com,2013-07-04 19:26:00,
2013-07-04 15:41:00,79.5,64.9,30.02,SSE,157,5.8,-999.0,61,-99.99,,,0.00,Acu-Link.com,2013-07-04 19:41:00,
2013-07-04 15:57:00,80.6,64.9,30.00,WNW,292,2.7,-999.0,59,-99.99,,,0.00,Acu-Link.com,2013-07-04 19:57:00,
2013-07-04 16:12:00,80.2,65.0,30.00,WSW,247,4.2,-999.0,60,-99.99,,,0.00,Acu-Link.com,2013-07-04 20:12:00,
2013-07-04 16:27:00,79.5,65.8,30.00,SE,135,3.2,-999.0,63,-99.99,,,0.00,Acu-Link.com,2013-07-04 20:27:00,
2013-07-04 16:42:00,79.9,65.7,30.00,ENE,67,2.2,-999.0,62,-99.99,,,0.00,Acu-Link.com,2013-07-04 20:42:00,
2013-07-04 16:58:00,79.5,63.9,30.00,NW,315,3.2,-999.0,59,-99.99,,,0.00,Acu-Link.com,2013-07-04 20:58:00,
2013-07-04 17:13:00,80.4,63.2,30.00,South,180,2.2,-999.0,56,-99.99,,,0.00,Acu-Link.com,2013-07-04 21:13:00,
2013-07-04 17:28:00,78.6,63.1,30.00,East,90,4.2,-999.0,59,-99.99,,,0.00,Acu-Link.com,2013-07-04 21:28:00,
2013-07-04 17:44:00,79.5,62.9,30.01,NE,45,3.2,-999.0,57,-99.99,,,0.00,Acu-Link.com,2013-07-04 21:44:00,
2013-07-04 17:59:00,78.4,64.7,30.01,East,90,2.2,-999.0,63,-99.99,,,0.00,Acu-Link.com,2013-07-04 21:59:00,
2013-07-04 18:14:00,78.4,63.8,30.00,SSE,157,1.7,-999.0,61,-99.99,,,0.00,Acu-Link.com,2013-07-04 22:14:00,
2013-07-04 18:29:00,81.1,65.4,30.00,SSE,157,0.0,-999.0,59,-99.99,,,0.00,Acu-Link.com,2013-07-04 22:29:00,
2013-07-04 18:45:00,80.1,64.9,29.99,ENE,67,0.0,-999.0,60,-99.99,,,0.00,Acu-Link.com,2013-07-04 22:45:00,
2013-07-04 19:00:00,79.3,63.7,30.00,ESE,112,1.7,-999.0,59,-99.99,,,0.00,Acu-Link.com,2013-07-04 23:00:00,
2013-07-04 19:15:00,77.9,64.3,30.00,East,90,1.7,-999.0,63,-99.99,,,0.00,Acu-Link.com,2013-07-04 23:15:00,
2013-07-04 19:31:00,77.2,64.9,30.00,SE,135,0.0,-999.0,66,-99.99,,,0.00,Acu-Link.com,2013-07-04 23:31:00,
2013-07-04 19:46:00,76.1,65.2,29.99,ESE,112,0.0,-999.0,69,-99.99,,,0.00,Acu-Link.com,2013-07-04 23:46:00,
2013-07-04 20:01:00,75.0,64.1,29.99,ESE,112,0.0,-999.0,69,-99.99,,,0.00,Acu-Link.com,2013-07-05 00:01:00,
2013-07-04 20:16:00,74.3,64.7,30.00,ESE,112,0.0,-999.0,72,-99.99,,,0.00,Acu-Link.com,2013-07-05 00:16:00,
2013-07-04 20:31:00,73.4,64.6,30.00,NNW,337,0.0,-999.0,74,-99.99,,,0.00,Acu-Link.com,2013-07-05 00:31:00,
2013-07-04 20:47:00,72.5,64.1,30.00,NNW,337,0.0,-999.0,75,-99.99,,,0.00,Acu-Link.com,2013-07-05 00:47:00,
2013-07-04 21:02:00,71.6,64.0,30.00,East,90,0.0,-999.0,77,-99.99,,,0.00,Acu-Link.com,2013-07-05 01:02:00,
2013-07-04 21:17:00,70.5,64.0,30.01,NE,45,0.0,-999.0,80,-99.99,,,0.00,Acu-Link.com,2013-07-05 01:17:00,
2013-07-04 21:33:00,70.0,63.9,30.01,ESE,112,0.0,-999.0,81,-99.99,,,0.00,Acu-Link.com,2013-07-05 01:33:00,
2013-07-04 21:48:00,69.3,63.6,30.01,East,90,0.0,-999.0,82,-99.99,,,0.00,Acu-Link.com,2013-07-05 01:48:00,
2013-07-04 22:03:00,68.5,63.1,30.02,South,180,0.0,-999.0,83,-99.99,,,0.00,Acu-Link.com,2013-07-05 02:03:00,
2013-07-04 22:19:00,68.0,63.6,30.01,East,90,0.0,-999.0,86,-99.99,,,0.00,Acu-Link.com,2013-07-05 02:19:00,
2013-07-04 22:34:00,67.5,63.5,30.02,SE,135,0.0,-999.0,87,-99.99,,,0.00,Acu-Link.com,2013-07-05 02:34:00,
2013-07-04 22:49:00,66.9,63.2,30.03,ESE,112,0.0,-999.0,88,-99.99,,,0.00,Acu-Link.com,2013-07-05 02:49:00,
2013-07-04 23:05:00,66.4,63.1,30.03,ESE,112,0.0,-999.0,89,-99.99,,,0.00,Acu-Link.com,2013-07-05 03:05:00,
2013-07-04 23:20:00,66.0,62.7,30.03,ESE,112,1.1,-999.0,89,-99.99,,,0.00,Acu-Link.com,2013-07-05 03:20:00,
2013-07-04 23:35:00,65.5,62.8,30.03,East,90,0.0,-999.0,91,-99.99,,,0.00,Acu-Link.com,2013-07-05 03:35:00,
2013-07-04 23:51:00,65.1,62.4,30.03,ESE,112,0.0,-999.0,91,-99.99,,,0.00,Acu-Link.com,2013-07-05 03:51:00,